Location: Newark
(41.8328°N, 0.5722°E)
Time: 07:56:14
(UTC+00:00)

ISS - Visible Passes

Search period start: 21 January 2020 00:00
Search period end: 31 January 2020 00:00
Orbit: 415 x 421 km, 51.6° (Epoch: 21 January)

Date Brightness Start Highest point End Pass type
(mag) Time Alt. Az. Time Alt. Az. Time Alt. Az.
21 Jan -3.2 18:09:33 10° SSW 18:12:45 43° SE 18:14:04 28° E visible
21 Jan -0.4 19:46:35 10° W 19:47:01 13° W 19:47:01 13° W visible
22 Jan -2.7 18:58:15 10° WSW 19:01:12 41° NW 19:01:12 41° NW visible
23 Jan -3.6 18:10:04 10° WSW 18:13:24 67° NNW 18:15:19 23° NE visible
23 Jan -0.3 19:48:09 10° WNW 19:48:15 11° WNW 19:48:15 11° WNW visible
24 Jan -1.9 18:59:38 10° WNW 19:02:18 23° NNW 19:02:18 23° NNW visible
25 Jan -2.3 18:11:11 10° W 18:14:14 31° NNW 18:16:17 17° NNE visible
26 Jan -1.4 19:01:10 10° NW 19:03:10 17° NNW 19:03:10 17° NNW visible
27 Jan -1.7 18:12:39 10° WNW 18:15:11 19° NNW 18:17:04 13° NNE visible
28 Jan -1.3 19:02:28 10° NW 19:03:53 15° NNW 19:03:53 15° NNW visible
29 Jan -1.5 18:14:05 10° NW 18:16:13 16° N 18:17:46 12° NNE visible
30 Jan -1.4 19:03:13 10° NW 19:04:35 16° NNW 19:04:35 16° NNW visible
